Weather in Ust'-Mil'

Russia / Sakha (Yakutia) Republic     59°38′22″N   133°06′46″E
temp.,
°C
wind,
m/s
gust,
m/s
humid.,
%
clouds,
%
prec.,
mm/h
press.,
hPa
HPBL,
m
18 may, tue
tue1800:00−2wsw2696100 0.0 1003181
03:00−4w11955 0.0 100410
06:000ssw008116 0.0 1005197
09:00+6wnw01525 0.0 10051264
12:00+9ene1131100 0.0 10022389
15:00+9e222798 0.0 10012442
18:00+9e232789 0.0 10002341
21:00+3ene225353 0.0 100118
19 may, wed
wed1900:00+1ene2658100 0.0 1002118
03:000ne2459100 0.0 100196
06:00+3ne385088 0.0 1002303
09:00+8ne462679 0.0 10021515
12:00+11nne352043 0.0 10012648
15:00+11ne342086 0.0 10013300
18:00+9nw4437100 0.0 10031366
21:00+4wnw3864100 0.1 1007325
20 may, thu
thu2000:00+1nw2275100 0.0 100830
03:000ne118083 0.0 100710
06:00+3nw11697 0.0 1007247
09:00+9ene234412 0.0 10051051
12:00+13ne23255 0.0 10042857
15:00+13ene3321100 0.0 10033008
18:00+12ene332859 0.0 10032254
21:00+5ene1144100 0.0 100510
21 may, fri
fri2100:00+4n0155100 0.0 100610
03:00+3ne0060100 0.0 100710
06:00+5nne1154100 0.0 1007138
09:00+10nnw123777 0.0 1008815
12:00+14nw2326100 0.0 10083172
15:00+13nw4431100 0.0 10092425
18:00+11w475070 0.1 10111040
21:00+6wsw366992 0.1 1014160
22 may, sat
sat2200:00+3wsw24855 0.0 101576
03:00+1wsw11830 0.0 101613
06:00+5sw12614 0.0 1016186
09:00+11wsw2241100 0.0 10151014
12:00+14wsw122895 0.0 10132725
15:00+15ssw2124100 0.0 10112815
18:00+13s1229100 0.0 10101440
21:00+8ene1144100 0.0 101012